02.05.2024;18:00;80
02.05.2024;17:00;108
02.05.2024;16:00;104
02.05.2024;15:00;103
02.05.2024;14:00;103
02.05.2024;13:00;98
02.05.2024;12:00;95
02.05.2024;11:00;89
02.05.2024;10:00;82
02.05.2024;09:00;77
02.05.2024;08:00;51
02.05.2024;07:00;24
02.05.2024;06:00;51
02.05.2024;05:00;60
02.05.2024;04:00;58
02.05.2024;03:00;67
02.05.2024;02:00;76
02.05.2024;01:00;81
02.05.2024;00:00;85
01.05.2024;23:00;88
01.05.2024;22:00;80
01.05.2024;21:00;73
01.05.2024;20:00;90
01.05.2024;19:00;108
01.05.2024;18:00;113
01.05.2024;17:00;113
01.05.2024;16:00;116
01.05.2024;15:00;113
01.05.2024;14:00;111
01.05.2024;13:00;108
01.05.2024;12:00;103
01.05.2024;11:00;98
01.05.2024;10:00;93
01.05.2024;09:00;74
01.05.2024;08:00;60
01.05.2024;07:00;48
01.05.2024;06:00;58
01.05.2024;05:00;53
01.05.2024;04:00;51
01.05.2024;03:00;70
01.05.2024;02:00;68
01.05.2024;01:00;63
01.05.2024;00:00;47
30.04.2024;23:00;37
30.04.2024;22:00;48
30.04.2024;21:00;46
30.04.2024;20:00;84
30.04.2024;19:00;110
